Location: Dalton
(34.7700°N, 84.9700°W)
Time: 00:44:27
(UTC-04:00)

Hubble Space Telescope - Pass Details

Date: 08 October 2017
Orbit: 537 x 541 km, 28.5° (Epoch: 20 October)

Event Time Altitude Azimuth Distance (km) Brightness Sun altitude
Exits shadow 05:27:11 22° 134° (SE) 1,202 2.8 -28.0°
Drops below altitude 10° 05:29:00 10° 117° (ESE) 1,788 4.0 -27.6°
Sets 05:31:25 0° 108° (ESE) 2,679 5.2 -27.1°
